| time (UTC) | temp C | wind direction | speed KPH | gust KPH | rain 1hr cm | rain 24hr cm | rain mn cm | humidity % | barometer mb |
| 20260502123016 | 2 | 270 | 1.6 | 4.8 | 0.00 | 0.00 | 0.00 | 83 | 1021.0 |
| 20260502122016 | 1 | 270 | 1.6 | 3.2 | 0.00 | 0.00 | 0.00 | 85 | 1020.7 |
| 20260502121017 | 0 | 270 | 1.6 | 4.8 | 0.00 | 0.00 | 0.00 | 86 | 1020.6 |
| 20260502115016 | 0 | 0.0 | 0.0 | 0.00 | 0.00 | 0.00 | 85 | 1020.3 | |
| 20260502114016 | 0 | 0.0 | 1.6 | 0.00 | 0.00 | 0.00 | 83 | 1020.3 | |
| 20260502113016 | 0 | 270 | 4.8 | 8.0 | 0.00 | 0.00 | 0.00 | 83 | 1020.3 |
| 20260502112016 | 0 | 23 | 3.2 | 4.8 | 0.00 | 0.00 | 0.00 | 84 | 1020.3 |
| 20260502111016 | 0 | 23 | 3.2 | 4.8 | 0.00 | 0.00 | 0.00 | 83 | 1020.2 |
| 20260502110016 | 0 | 23 | 3.2 | 4.8 | 0.00 | 0.00 | 0.00 | 82 | 1020.2 |
| 20260502105016 | 0 | 23 | 1.6 | 4.8 | 0.00 | 0.00 | 0.00 | 82 | 1020.2 |
| 20260502104016 | 0 | 23 | 3.2 | 4.8 | 0.00 | 0.00 | 0.00 | 80 | 1020.1 |
| 20260502103016 | 0 | 23 | 3.2 | 4.8 | 0.00 | 0.00 | 0.00 | 80 | 1020.1 |
| 20260502102016 | 0 | 23 | 1.6 | 4.8 | 0.00 | 0.00 | 0.00 | 81 | 1020.2 |
| 20260502101016 | 0 | 0.0 | 0.0 | 0.00 | 0.00 | 0.00 | 81 | 1020.2 | |
| 20260502091016 | 0 | 0.0 | 3.2 | 0.00 | 0.00 | 0.00 | 79 | 1019.9 | |
| 20260502071016 | 2 | 0.0 | 0.0 | 0.00 | 0.00 | 0.00 | 74 | 1019.7 | |
| 20260502070016 | 2 | 0.0 | 0.0 | 0.00 | 0.00 | 0.00 | 74 | 1019.8 | |
| 20260502065016 | 2 | 0.0 | 0.0 | 0.00 | 0.00 | 0.00 | 73 | 1019.8 | |
| 20260502064016 | 2 | 0.0 | 0.0 | 0.00 | 0.00 | 0.00 | 72 | 1019.8 | |
| 20260502063016 | 2 | 0.0 | 0.0 | 0.00 | 0.00 | 0.00 | 72 | 1019.9 | |
| 20260502062016 | 2 | 0.0 | 0.0 | 0.00 | 0.00 | 0.00 | 68 | 1019.7 | |
| 20260502061016 | 3 | 0.0 | 0.0 | 0.00 | 0.00 | 0.00 | 67 | 1019.8 | |
| 20260502060016 | 3 | 0.0 | 0.0 | 0.00 | 0.00 | 0.00 | 66 | 1019.7 | |
| 20260502055016 | 4 | 0.0 | 0.0 | 0.00 | 0.00 | 0.00 | 64 | 1019.8 | |
| 20260502054016 | 5 | 0.0 | 0.0 | 0.00 | 0.00 | 0.00 | 61 | 1019.6 | |
| 20260502053016 | 5 | 0.0 | 0.0 | 0.00 | 0.00 | 0.00 | 59 | 1019.6 | |
| 20260502052016 | 5 | 0.0 | 0.0 | 0.00 | 0.00 | 0.00 | 58 | 1019.6 | |
| 20260502051016 | 6 | 0.0 | 0.0 | 0.00 | 0.00 | 0.00 | 58 | 1019.6 | |
| 20260502050016 | 6 | 23 | 1.6 | 4.8 | 0.00 | 0.00 | 0.00 | 58 | 1019.5 |
| 20260502045017 | 6 | 0.0 | 1.6 | 0.00 | 0.00 | 0.00 | 57 | 1019.5 | |
| 20260502044017 | 6 | 0.0 | 3.2 | 0.00 | 0.00 | 0.00 | 57 | 1019.4 | |
| 20260502043017 | 6 | 0.0 | 0.0 | 0.00 | 0.00 | 0.00 | 56 | 1019.3 | |
| 20260502042017 | 7 | 0.0 | 1.6 | 0.00 | 0.00 | 0.00 | 55 | 1019.3 | |
| 20260502041017 | 7 | 0.0 | 1.6 | 0.00 | 0.00 | 0.00 | 53 | 1019.2 | |
| 20260502040017 | 7 | 0.0 | 1.6 | 0.00 | 0.00 | 0.00 | 50 | 1019.2 | |
| 20260502035017 | 7 | 0.0 | 1.6 | 0.00 | 0.00 | 0.00 | 49 | 1018.9 | |
| 20260502034017 | 8 | 23 | 1.6 | 4.8 | 0.00 | 0.00 | 0.00 | 49 | 1018.9 |
| 20260502033017 | 8 | 0.0 | 3.2 | 0.00 | 0.00 | 0.00 | 48 | 1018.8 | |
| 20260502032017 | 8 | 0.0 | 4.8 | 0.00 | 0.00 | 0.00 | 47 | 1018.8 | |
| 20260502031017 | 8 | 23 | 1.6 | 4.8 | 0.00 | 0.00 | 0.00 | 46 | 1018.8 |
| 20260502030017 | 9 | 0.0 | 3.2 | 0.00 | 0.00 | 0.00 | 45 | 1018.8 | |
| 20260502025017 | 9 | 23 | 1.6 | 3.2 | 0.00 | 0.00 | 0.00 | 44 | 1018.5 |
| 20260502024017 | 10 | 23 | 1.6 | 4.8 | 0.00 | 0.00 | 0.00 | 43 | 1018.3 |
| 20260502023017 | 10 | 23 | 1.6 | 4.8 | 0.00 | 0.00 | 0.00 | 42 | 1018.2 |
| 20260502022017 | 10 | 23 | 1.6 | 4.8 | 0.00 | 0.00 | 0.00 | 42 | 1018.1 |
| 20260502021017 | 11 | 23 | 1.6 | 6.4 | 0.00 | 0.00 | 0.00 | 40 | 1017.9 |
| 20260502020017 | 11 | 23 | 1.6 | 4.8 | 0.00 | 0.00 | 0.00 | 40 | 1017.8 |
| 20260502015017 | 11 | 0.0 | 6.4 | 0.00 | 0.00 | 0.00 | 39 | 1017.4 | |
| 20260502014017 | 12 | 23 | 1.6 | 4.8 | 0.00 | 0.00 | 0.00 | 37 | 1017.4 |
| 20260502013017 | 12 | 23 | 3.2 | 8.0 | 0.00 | 0.00 | 0.00 | 36 | 1017.2 |
| 20260502012016 | 13 | 45 | 3.2 | 8.0 | 0.00 | 0.00 | 0.00 | 35 | 1016.9 |
| 20260502011017 | 13 | 0 | 3.2 | 8.0 | 0.00 | 0.00 | 0.00 | 35 | 1016.8 |
| 20260502010016 | 14 | 0 | 6.4 | 14.5 | 0.00 | 0.00 | 0.00 | 34 | 1016.7 |
| 20260502005016 | 15 | 45 | 4.8 | 16.1 | 0.00 | 0.00 | 0.00 | 33 | 1016.4 |
| 20260502004016 | 15 | 338 | 6.4 | 16.1 | 0.00 | 0.00 | 0.00 | 34 | 1016.2 |
| 20260502003016 | 15 | 338 | 8.0 | 19.3 | 0.00 | 0.00 | 0.00 | 33 | 1016.2 |
| 20260502002017 | 16 | 338 | 6.4 | 12.9 | 0.00 | 0.00 | 0.00 | 34 | 1015.9 |
| 20260502001016 | 16 | 0 | 6.4 | 14.5 | 0.00 | 0.00 | 0.00 | 36 | 1016.0 |
| 20260502000016 | 16 | 338 | 8.0 | 22.5 | 0.00 | 0.00 | 0.00 | 35 | 1016.1 |
| 20260501235016 | 16 | 0 | 9.7 | 24.1 | 0.00 | 0.00 | 0.00 | 34 | 1016.1 |
| 20260501234016 | 16 | 338 | 11.3 | 22.5 | 0.00 | 0.00 | 0.00 | 33 | 1015.9 |
| 20260501233016 | 16 | 338 | 14.5 | 25.7 | 0.00 | 0.00 | 0.00 | 34 | 1016.0 |
| 20260501232016 | 17 | 338 | 11.3 | 25.7 | 0.00 | 0.00 | 0.00 | 34 | 1016.0 |
| 20260501231017 | 17 | 338 | 12.9 | 25.7 | 0.00 | 0.00 | 0.00 | 34 | 1016.2 |
| 20260501230016 | 16 | 338 | 9.7 | 19.3 | 0.00 | 0.00 | 0.00 | 35 | 1016.0 |
| 20260501225016 | 17 | 315 | 9.7 | 22.5 | 0.00 | 0.00 | 0.00 | 33 | 1016.0 |
| 20260501224016 | 17 | 338 | 8.0 | 16.1 | 0.00 | 0.00 | 0.00 | 35 | 1016.1 |
| 20260501223016 | 16 | 338 | 9.7 | 22.5 | 0.00 | 0.00 | 0.00 | 35 | 1016.2 |
| 20260501222016 | 16 | 338 | 11.3 | 20.9 | 0.00 | 0.00 | 0.00 | 35 | 1016.2 |
| 20260501221016 | 16 | 338 | 9.7 | 17.7 | 0.00 | 0.00 | 0.00 | 36 | 1016.2 |
| 20260501220016 | 17 | 338 | 12.9 | 30.6 | 0.00 | 0.00 | 0.00 | 33 | 1016.2 |
| 20260501215016 | 17 | 315 | 12.9 | 24.1 | 0.00 | 0.00 | 0.00 | 35 | 1016.2 |
| 20260501214016 | 16 | 315 | 11.3 | 22.5 | 0.00 | 0.00 | 0.00 | 36 | 1016.4 |
| 20260501213016 | 17 | 315 | 9.7 | 19.3 | 0.00 | 0.00 | 0.00 | 34 | 1016.4 |
| 20260501212016 | 17 | 338 | 6.4 | 24.1 | 0.00 | 0.00 | 0.00 | 34 | 1016.6 |
| 20260501211016 | 17 | 0 | 8.0 | 22.5 | 0.00 | 0.00 | 0.00 | 34 | 1016.8 |
| 20260501210016 | 17 | 338 | 9.7 | 25.7 | 0.00 | 0.00 | 0.00 | 36 | 1016.8 |
| 20260501205016 | 17 | 0 | 6.4 | 16.1 | 0.00 | 0.00 | 0.00 | 35 | 1017.1 |
| 20260501204016 | 17 | 315 | 12.9 | 27.4 | 0.00 | 0.00 | 0.00 | 36 | 1017.2 |
| 20260501203016 | 17 | 315 | 12.9 | 24.1 | 0.00 | 0.00 | 0.00 | 34 | 1017.2 |
| 20260501202016 | 17 | 315 | 9.7 | 22.5 | 0.00 | 0.00 | 0.00 | 36 | 1017.1 |
| 20260501201016 | 17 | 315 | 11.3 | 22.5 | 0.00 | 0.00 | 0.00 | 36 | 1017.2 |
| 20260501200016 | 17 | 315 | 8.0 | 20.9 | 0.00 | 0.00 | 0.00 | 37 | 1017.2 |
| 20260501195016 | 17 | 315 | 11.3 | 22.5 | 0.00 | 0.00 | 0.00 | 36 | 1017.3 |
| 20260501194016 | 17 | 0 | 9.7 | 22.5 | 0.00 | 0.00 | 0.00 | 35 | 1017.3 |
| 20260501193016 | 17 | 0 | 8.0 | 17.7 | 0.00 | 0.00 | 0.00 | 34 | 1017.3 |
| 20260501192016 | 16 | 338 | 8.0 | 16.1 | 0.00 | 0.00 | 0.00 | 39 | 1017.3 |
| 20260501191016 | 16 | 338 | 14.5 | 22.5 | 0.00 | 0.00 | 0.00 | 35 | 1017.4 |
| 20260501190016 | 16 | 45 | 8.0 | 17.7 | 0.00 | 0.00 | 0.00 | 36 | 1017.4 |
| 20260501185016 | 16 | 293 | 9.7 | 22.5 | 0.00 | 0.00 | 0.00 | 39 | 1017.6 |
| 20260501184016 | 16 | 338 | 11.3 | 20.9 | 0.00 | 0.00 | 0.00 | 38 | 1017.6 |
| 20260501183016 | 16 | 338 | 11.3 | 19.3 | 0.00 | 0.00 | 0.00 | 38 | 1017.6 |
| 20260501182016 | 16 | 338 | 11.3 | 19.3 | 0.00 | 0.00 | 0.00 | 40 | 1017.8 |
| 20260501181016 | 16 | 45 | 6.4 | 16.1 | 0.00 | 0.00 | 0.00 | 40 | 1017.8 |
| 20260501180016 | 15 | 293 | 11.3 | 17.7 | 0.00 | 0.00 | 0.00 | 46 | 1017.8 |
| 20260501175016 | 16 | 293 | 8.0 | 19.3 | 0.00 | 0.00 | 0.00 | 42 | 1018.1 |
| 20260501174016 | 16 | 338 | 6.4 | 16.1 | 0.00 | 0.00 | 0.00 | 45 | 1018.0 |
| 20260501173016 | 16 | 338 | 8.0 | 19.3 | 0.00 | 0.00 | 0.00 | 42 | 1018.1 |
| 20260501172016 | 15 | 315 | 11.3 | 22.5 | 0.00 | 0.00 | 0.00 | 41 | 1018.1 |
| 20260501171016 | 16 | 338 | 8.0 | 22.5 | 0.00 | 0.00 | 0.00 | 41 | 1018.2 |
| 20260501170015 | 15 | 338 | 9.7 | 19.3 | 0.00 | 0.00 | 0.00 | 42 | 1018.0 |
| 20260501165015 | 15 | 315 | 14.5 | 24.1 | 0.00 | 0.00 | 0.00 | 41 | 1018.3 |
| 20260501164016 | 15 | 293 | 12.9 | 25.7 | 0.00 | 0.00 | 0.00 | 44 | 1018.2 |
| 20260501163015 | 15 | 293 | 14.5 | 25.7 | 0.00 | 0.00 | 0.00 | 44 | 1018.1 |
| 20260501162015 | 15 | 293 | 17.7 | 32.2 | 0.00 | 0.00 | 0.00 | 47 | 1018.4 |
| 20260501161015 | 14 | 293 | 12.9 | 25.7 | 0.00 | 0.00 | 0.00 | 49 | 1018.2 |
| 20260501160015 | 13 | 270 | 17.7 | 30.6 | 0.00 | 0.00 | 0.00 | 53 | 1018.3 |
| 20260501155016 | 13 | 293 | 17.7 | 27.4 | 0.00 | 0.00 | 0.00 | 55 | 1018.3 |
| 20260501154016 | 12 | 270 | 16.1 | 29.0 | 0.00 | 0.00 | 0.00 | 62 | 1018.4 |
| 20260501153016 | 12 | 293 | 14.5 | 29.0 | 0.00 | 0.00 | 0.00 | 61 | 1018.6 |
| 20260501152015 | 11 | 293 | 12.9 | 32.2 | 0.00 | 0.00 | 0.00 | 63 | 1018.6 |
| 20260501151015 | 11 | 293 | 11.3 | 24.1 | 0.00 | 0.00 | 0.00 | 62 | 1018.6 |
| 20260501150015 | 11 | 293 | 9.7 | 17.7 | 0.00 | 0.00 | 0.00 | 65 | 1018.7 |
| 20260501145015 | 10 | 293 | 9.7 | 17.7 | 0.00 | 0.00 | 0.00 | 66 | 1018.7 |
| 20260501144015 | 10 | 293 | 9.7 | 20.9 | 0.00 | 0.00 | 0.00 | 67 | 1018.7 |
| 20260501143015 | 9 | 315 | 8.0 | 16.1 | 0.00 | 0.00 | 0.00 | 70 | 1018.6 |
| 20260501142015 | 9 | 315 | 8.0 | 20.9 | 0.00 | 0.00 | 0.00 | 71 | 1018.5 |